This is the latest recevied weather packets stored in our database for station/object HP1CDW-13. If no packets are shown the sender has not sent any weather packets the latest 10 day(s).
| Time | Temp. | Humidity | Pressure | Rain* | Wind** | Luminosity | Snow |
|---|---|---|---|---|---|---|---|
| 1777767890 | 23.33° C | 97% | 1014.8 hPa | 0.76 mm | - | - | - |
| 1777767290 | 23.33° C | 97% | 1015 hPa | 0.76 mm | - | - | - |
| 1777766690 | 23.33° C | 97% | 1015.1 hPa | 0.76 mm | - | - | - |
| 1777766090 | 23.89° C | 98% | 1015.1 hPa | 1.02 mm | - | - | - |
| 1777765490 | 23.89° C | 98% | 1015.2 hPa | 1.78 mm | - | - | - |
| 1777764890 | 23.89° C | 98% | 1015.2 hPa | 1.78 mm | - | - | - |
| 1777764290 | 23.89° C | 98% | 1015 hPa | 2.29 mm | - | - | - |
| 1777763690 | 23.89° C | 98% | 1015.5 hPa | 3.05 mm | - | - | - |
| 1777763090 | 23.89° C | 98% | 1015.4 hPa | 4.06 mm | - | - | - |
| 1777762490 | 23.89° C | 98% | 1015.3 hPa | 4.06 mm | - | - | - |
| 1777761890 | 23.89° C | 98% | 1015.2 hPa | 3.81 mm | - | - | - |
| 1777760690 | 23.89° C | 98% | 1014.8 hPa | 4.57 mm | - | - | - |
| 1777760090 | 23.89° C | 98% | 1014.7 hPa | 4.57 mm | - | - | - |
| 1777759490 | 24.44° C | 99% | 1014.8 hPa | 5.08 mm | - | - | - |
| 1777758890 | 23.89° C | 98% | 1014.7 hPa | 5.08 mm | - | - | - |
| 1777758290 | 24.44° C | 98% | 1014.9 hPa | 5.08 mm | - | - | - |
| 1777757690 | 24.44° C | 98% | 1015 hPa | 5.08 mm | - | - | - |
| 1777757090 | 24.44° C | 98% | 1014.9 hPa | 4.83 mm | - | - | - |
| 1777756490 | 24.44° C | 98% | 1015 hPa | 6.6 mm | - | - | - |
| 1777755890 | 25° C | 98% | 1014.9 hPa | 8.64 mm | - | - | - |
| 1777755290 | 25° C | 98% | 1014.8 hPa | 8.89 mm | - | - | - |
| 1777754690 | 25° C | 98% | 1014.5 hPa | 8.89 mm | - | - | - |
| 1777754090 | 25° C | 97% | 1014.5 hPa | 8.38 mm | - | - | - |
| 1777753490 | 25° C | 97% | 1014.2 hPa | 7.11 mm | - | - | - |
| 1777752890 | 25° C | 96% | 1013.9 hPa | 4.06 mm | - | - | - |
* Rain latest hour (hover to see other rain measurements)
** Current wind speed in m/s (hover to see current wind gust speed)